TimeEDT,TemperatureF,Dew PointF,Humidity,Sea Level PressureIn,VisibilityMPH,Wind Direction,Wind SpeedMPH,Gust SpeedMPH,PrecipitationIn,Events,Conditions,WindDirDegrees,DateUTC
12:53 AM,75.9,69.1,79,30.05,10.0,Variable,3.5,-,N/A,,Mostly Cloudy,0,2013-07-23 04:53:00
1:53 AM,77.0,70.0,79,30.05,10.0,Variable,6.9,-,N/A,,Overcast,0,2013-07-23 05:53:00
2:01 AM,77.0,69.8,78,30.03,10.0,SSW,5.8,-,N/A,,Mostly Cloudy,210,2013-07-23 06:01:00
2:41 AM,75.2,69.8,83,30.03,10.0,Calm,Calm,-,N/A,,Mostly Cloudy,0,2013-07-23 06:41:00
2:53 AM,75.9,70.0,82,30.04,10.0,Calm,Calm,-,N/A,,Overcast,0,2013-07-23 06:53:00
3:24 AM,75.2,69.8,83,30.02,10.0,Calm,Calm,-,N/A,,Scattered Clouds,0,2013-07-23 07:24:00
3:53 AM,75.0,70.0,84,30.04,10.0,Calm,Calm,-,N/A,,Clear,0,2013-07-23 07:53:00
4:05 AM,75.2,69.8,83,30.02,10.0,Calm,Calm,-,N/A,,Partly Cloudy,0,2013-07-23 08:05:00
4:38 AM,75.2,69.8,83,30.03,10.0,Variable,3.5,-,N/A,,Mostly Cloudy,0,2013-07-23 08:38:00
4:53 AM,75.0,70.0,84,30.05,10.0,Variable,3.5,-,N/A,,Mostly Cloudy,0,2013-07-23 08:53:00
5:43 AM,75.2,71.6,89,30.03,10.0,Calm,Calm,-,0.00,Rain,Light Rain,0,2013-07-23 09:43:00
5:53 AM,75.0,71.1,87,30.05,10.0,Calm,Calm,-,0.00,Rain,Light Rain,0,2013-07-23 09:53:00
6:39 AM,75.2,71.6,89,30.03,10.0,Calm,Calm,-,0.00,,Mostly Cloudy,0,2013-07-23 10:39:00
6:49 AM,75.2,69.8,83,30.03,10.0,Calm,Calm,-,0.00,,Overcast,0,2013-07-23 10:49:00
6:53 AM,75.0,71.1,87,30.05,10.0,Variable,3.5,-,0.00,,Overcast,0,2013-07-23 10:53:00
7:48 AM,75.2,71.6,89,30.03,7.0,North,-9999.0,-,N/A,,Mostly Cloudy,0,2013-07-23 11:48:00
7:53 AM,75.9,71.1,85,30.05,7.0,North,-9999.0,-,N/A,,Mostly Cloudy,0,2013-07-23 11:53:00
8:00 AM,-9999,-9999,N/A,30.03,7.0,North,-9999.0,-,N/A,,Mostly Cloudy,0,2013-07-23 12:00:00
9:04 AM,80.6,71.6,74,30.03,7.0,Variable,3.5,-,N/A,,Mostly Cloudy,0,2013-07-23 13:04:00
9:53 AM,82.0,73.0,74,30.06,7.0,Variable,5.8,-,N/A,,Mostly Cloudy,0,2013-07-23 13:53:00
10:33 AM,84.2,73.4,70,30.03,10.0,Calm,Calm,-,0.00,,Scattered Clouds,0,2013-07-23 14:33:00
10:41 AM,87.8,73.4,62,30.03,10.0,North,-9999.0,-,0.00,,Mostly Cloudy,0,2013-07-23 14:41:00
10:53 AM,87.1,73.9,65,30.05,-9999.0,Variable,6.9,-,0.00,,Mostly Cloudy,0,2013-07-23 14:53:00
11:53 AM,87.1,73.9,65,30.05,10.0,North,-9999.0,-,N/A,,Mostly Cloudy,0,2013-07-23 15:53:00
12:53 PM,89.1,75.0,63,30.03,10.0,WNW,6.9,-,N/A,,Overcast,300,2013-07-23 16:53:00
1:53 PM,90.0,73.9,59,30.01,10.0,WNW,5.8,-,N/A,,Mostly Cloudy,300,2013-07-23 17:53:00
2:53 PM,93.0,75.9,57,29.99,10.0,Variable,4.6,-,N/A,,Mostly Cloudy,0,2013-07-23 18:53:00
3:00 PM,91.4,73.4,55,29.97,10.0,WSW,6.9,-,N/A,,Mostly Cloudy,250,2013-07-23 19:00:00
3:53 PM,84.9,73.9,69,29.97,10.0,Variable,6.9,-,N/A,,Mostly Cloudy,0,2013-07-23 19:53:00
4:53 PM,87.1,73.9,65,29.96,10.0,Variable,6.9,-,0.01,Rain,Light Rain,0,2013-07-23 20:53:00
5:15 PM,87.8,73.4,62,29.93,10.0,Variable,5.8,-,0.00,,Mostly Cloudy,0,2013-07-23 21:15:00
5:53 PM,84.0,73.9,72,29.96,10.0,SW,4.6,-,0.00,Rain,Light Rain,220,2013-07-23 21:53:00
6:53 PM,80.1,73.9,81,29.97,5.0,Calm,Calm,-,0.01,Rain,Light Rain,0,2013-07-23 22:53:00
7:21 PM,78.8,75.2,89,29.94,2.0,Calm,Calm,-,0.07,Rain,Rain,0,2013-07-23 23:21:00
7:32 PM,78.8,75.2,89,29.94,2.5,Calm,Calm,-,0.09,Rain,Rain,0,2013-07-23 23:32:00
7:41 PM,80.6,75.2,84,29.93,3.0,SSW,3.5,-,0.11,Rain,Rain,210,2013-07-23 23:41:00
7:50 PM,80.6,75.2,84,29.93,2.5,Calm,Calm,-,0.13,Rain,Rain,0,2013-07-23 23:50:00
7:53 PM,80.1,75.0,85,29.94,2.5,Calm,Calm,-,0.14,Rain,Rain,0,2013-07-23 23:53:00
8:00 PM,80.6,75.2,84,29.92,4.0,Calm,Calm,-,0.01,Rain,Light Rain,0,2013-07-24 00:00:00
8:53 PM,79.0,75.0,88,29.95,10.0,South,4.6,-,0.01,,Scattered Clouds,190,2013-07-24 00:53:00
9:53 PM,80.1,75.0,85,29.95,8.0,South,5.8,-,N/A,,Partly Cloudy,190,2013-07-24 01:53:00
10:53 PM,79.0,73.0,82,29.92,10.0,Variable,3.5,-,N/A,,Clear,0,2013-07-24 02:53:00
11:53 PM,75.9,70.0,82,29.93,10.0,Variable,5.8,-,N/A,,Unknown,0,2013-07-24 03:53:00